This demonstration page uses our WeatherBlox Daily Observations layout. Learn more.

Left ArrowRight Arrow

39.12711, -84.51439

Hourly Observations for May 12, 2016

Temp ( °F °C ) Dew Point ( °F °C ) Humidity (%) Winds ( mph kmh ) Pressure ( in mb ) Visibility ( mi km ) Precip ( " mm )
12:53 am 00:53 Clear 67 19.4 60 15.6 79 79 Calm 30.03 1017 10 16 0.00 0.00
1:53 am 01:53 Clear 63 17.2 61 16.1 93 93 SSW 7 11 30.03 1017 10 16 0.00 0.00
2:53 am 02:53 Clear 63 17.2 60 15.6 90 90 SW 3 6 30.02 1017 10 16 0.00 0.00
3:53 am 03:53 Clear 61 16.1 61 16.1 100 100 Calm 30.02 1017 10 16 0.00 0.00
4:53 am 04:53 Clear 61 16.1 61 16.1 100 100 Calm 30.00 1016 10 16 0.00 0.00
5:53 am 05:53 Clear 62 16.7 60 15.6 93 93 SSW 3 6 30.01 1016 10 16 0.00 0.00
6:53 am 06:53 Sunny 59 15 59 15 100 100 Calm 30.03 1017 10 16 0.00 0.00
7:53 am 07:53 Sunny 64 17.8 62 16.7 93 93 S 3 6 30.04 1017 10 16 0.00 0.00
8:53 am 08:53 Partly Cloudy 65 18.3 62 16.7 90 90 SW 6 9 30.06 1018 10 16 0.00 0.00
9:46 am 09:46 Cloudy 66 19 63 17 88 88 S 7 11 30.03 1017 10 16 0.00 0.00
9:53 am 09:53 Mostly Cloudy 67 19.4 62 16.7 84 84 SW 6 9 30.07 1018 10 16 0.00 0.00
10:53 am 10:53 Mostly Cloudy 67 19.4 62 16.7 84 84 S 8 13 30.04 1017 10 16 0.00 0.00
11:53 am 11:53 Cloudy 67 19.4 63 17.2 87 87 S 10 17 30.04 1017 10 16 0.00 0.00
12:16 pm 12:16 Cloudy 68 20 63 17 83 83 S 10 17 30.03 1017 10 16 0.00 0.00
12:33 pm 12:33 Cloudy 68 20 63 17.2 84 84 S 10 17 30.03 1017 10 16 0.00 0.00
12:53 pm 12:53 Cloudy 69 20.6 63 17.2 81 81 SSW 10 17 30.04 1017 10 16 0.00 0.00
1:53 pm 13:53 Mostly Cloudy 73 22.8 65 18.3 76 76 S 6 9 30.01 1016 10 16 0.00 0.00
2:53 pm 14:53 Cloudy 74 23.3 63 17.2 69 69 SW 8 13 29.99 1016 10 16 0.00 0.00
3:53 pm 15:53 Mostly Cloudy 74 23.3 63 17.2 69 69 WSW 8 13 29.95 1014 10 16 0.00 0.00
4:53 pm 16:53 Mostly Cloudy with Light Rain 75 23.9 63 17.2 66 66 SW 10 17 29.92 1013 7 11 0.00 0.03
4:56 pm 16:56 Mostly Cloudy with Thunderstorms 75 24 63 17 65 65 SW 7 11 29.91 1013 4 6 0.00 0.00
5:34 pm 17:34 Cloudy with Light Rain 68 20 66 19 94 94 SSW 5 7 29.91 1013 10 16 0.00 0.00
5:53 pm 17:53 Cloudy 69 20.6 67 19.4 93 93 SSE 5 7 29.91 1013 10 16 0.02 0.51
6:53 pm 18:53 Mostly Cloudy 68 20 67 19.4 96 96 S 6 9 29.91 1013 10 16 0.00 0.00
7:53 pm 19:53 Cloudy with Light Rain 68 20 64 17.8 87 87 SW 13 20 29.92 1013 6 10 0.01 0.25
8:53 pm 20:53 Cloudy with Light Rain 65 18.3 65 18.3 100 100 S 6 9 29.92 1013 8 13 0.06 1.52
9:46 pm 21:46 Cloudy with Light Rain 64 18 64 18 100 100 SSW 7 11 29.91 1013 7 11 0.00 0.00
9:53 pm 21:53 Cloudy with Light Rain 65 18.3 65 18.3 100 100 SSW 5 7 29.93 1013 7 11 0.01 0.25
10:30 pm 22:30 Cloudy with Light Rain 66 19 64 18 94 94 SW 7 11 29.91 1013 9 14 0.00 0.00
10:53 pm 22:53 Cloudy with Light Rain 66 18.9 65 18.3 96 96 WSW 8 13 29.94 1014 10 16 0.01 0.25
11:53 pm 23:53 Cloudy with Light Rain 61 16.1 59 15 93 93 Calm 29.96 1015 10 16 0.03 0.76

Powered by AerisWeather